User: anonymous   Login
Location: Unspecified
(49.2170°N, 0.0000°E)
Time: 02:04:04
(UTC+00:00)
Language:

Tiros 1 despin weight - Orbit

View from above orbital plane
View from above orbital plane
View from above satellite
View from above satellite

Ground track
Ground track

The orbit data is extracted from the following two-line orbital elements,

1 00115U 60002D   21125.30163385  .00000008  00000-0  27952-4 0  9992
2 00115  48.1655 166.4117 0035127 228.4716 131.3181 14.83758395239603
Epoch (UTC): 05 May 2021 07:14:21
Eccentricity: 0.0035127
inclination: 48.1655°
perigee height: 593 km
apogee height: 642 km
right ascension of ascending node: 166.4117°
argument of perigee: 228.4716°
revolutions per day: 14.83758395
mean anomaly at epoch: 131.3181°
orbit number at epoch: 23960

The dashed part of the orbit path shows where the satellite is in the earth's shadow,  

DLR